User: anonymous   Login
Location: Ostrava
(49.8330°N, 18.2830°E)
Time: 17:19:29
(UTC+02:00)
Language:

Cosmos 1263 Rocket - Orbit

View from above orbital plane
View from above orbital plane
View from above satellite
View from above satellite

Ground track
Ground track

The orbit data is extracted from the following two-line orbital elements,

1 12389U 81033B   15185.48580039  .00768555 -12755-5  63929-3 0  9999
2 12389 082.8407 085.4346 0036911 138.3775 351.8464 16.12218043769177
Epoch (UTC): 04 July 2015 11:39:33
Eccentricity: 0.0036911
inclination: 82.8407°
perigee height: 216 km
apogee height: 265 km
right ascension of ascending node: 85.4346°
argument of perigee: 138.3775°
revolutions per day: 16.12218043
mean anomaly at epoch: 351.8464°
orbit number at epoch: 76917

The dashed part of the orbit path shows where the satellite is in the earth's shadow,  

DLR